SCP
0 0 0 0 0 0 0 0 0 0 0 0 0 0 0 0 0 0 0 0 0 -0 0 0 0 0 0 0 0 0 0 0 0 0 -0 0 0 0 -0 -0 -0 -1 0 0
0 0 0 0 0 0 0 0 0 0 0 0 0 0 -0 -0 -0 -0 -0 -0 -0 -0 -0 0 0 0 0 0 0 0 0 0 0 0 0 0 0 0 -0 -0 -0 -1 0 0
0 0 0 0 0 0 0 0 0 0 0 0 0 -0 -0 -0 -0 -0 -0 -0 -0 -0 0 0 0 0 0 0 0 0 0 0 0 0 0 0 -0 0 0 -0 -0 -0 0 0
0 0 0 0 0 0 0 0 0 0 0 0 -0 -0 -0 -0 -0 -0 -0 -0 -0 0 0 0 0 0 0 0 0 0 0 0 0 0 0 -0 -0 0 0 -0 -0 0 0 0
0 0 0 0 0 0 0 0 0 0 -0 -0 -0 -0 -0 -0 -0 -0 -0 -0 0 0 0 0 0 0 0 0 0 0 0 0 0 0 0 0 -0 0 0 0 -0 0 0 0
0 0 0 0 0 0 0 0 0 -0 -0 -0 -0 -0 -0 -0 0 0 -0 0 0 0 0 0 0 0 0 0 0 0 0 0 0 0 0 0 -0 -0 0 -0 -0 0 -0 0
0 0 0 0 0 0 0 0 -0 -0 -0 -0 -0 -0 -0 -0 -0 0 0 0 0 0 0 0 0 0 0 0 0 0 0 0 0 0 -0 0 0 0 0 -0 -0 0 0 0
0 0 0 0 0 0 0 -0 -0 -0 -0 -0 -0 -0 -0 0 0 0 -0 -0 0 0 0 0 0 0 0 0 0 0 0 0 0 0 0 0 0 0 0 -0 -0 0 0 -0
0 0 0 0 -0 0 -0 -0 -0 -0 -0 -0 -0 -0 0 -0 0 -0 0 0 0 0 0 0 0 0 0 0 0 0 0 0 0 0 0 0 0 0 0 0 -0 0 0 0
0 0 0 0 0 -0 -0 -0 -0 -0 -0 -0 -0 0 0 0 0 0 0 0 0 0 0 0 0 0 0 0 0 0 0 0 0 0 -0 0 0 0 0 0 -0 0 0 0
0 0 0 0 0 -0 0 0 -0 0 -0 -0 -0 0 0 -0 -0 0 -0 0 0 0 0 0 0 0 0 0 0 0 0 0 0 0 0 0 0 0 0 0 0 0 0 0
0 0 0 0 -0 0 0 -0 0 -0 -0 -0 -0 0 0 -0 -0 0 0 0 0 0 0 0 0 0 0 0 0 0 0 0 0 0 -0 0 0 0 0 0 0 0 0 0
0 0 0 0 0 0 0 0 0 0 -0 -0 -0 -0 0 -0 0 0 -0 0 0 0 0 0 0 0 0 0 0 0 0 0 0 0 0 0 0 0 0 0 0 0 0 0
0 0 0 0 0 0 0 0 -0 -0 -0 -0 -0 0 -0 -0 0 0 0 0 0 0 0 0 0 0 0 0 0 0 0 0 0 0 0 0 0 0 0 0 0 0 0 0
0 0 0 0 0 0 0 0 -0 0 0 0 -0 0 -0 0 0 0 0 0 0 0 0 0 0 0 0 0 0 0 0 0 0 0 0 0 0 0 0 0 0 0 0 0
0 0 0 0 0 0 0 -0 0 0 0 0 0 -0 -0 -0 0 0 -0 0 0 0 0 0 0 0 0 0 0 0 0 0 0 0 0 -0 0 -0 0 0 0 0 0 0
0 0 0 0 0 0 0 -0 -0 0 0 0 0 -0 0 0 0 0 0 0 0 0 0 0 0 0 0 0 0 0 0 0 0 0 0 0 0 0 0 0 0 0 0 0
0 0 0 0 0 0 0 0 -0 0 0 0 0 0 0 0 0 0 0 0 0 0 0 0 0 0 0 0 0 0 0 0 0 0 0 0 0 0 0 0 -0 0 0 0
0 0 0 0 0 0 0 -0 -0 -0 -0 -0 -0 0 -0 -0 -0 0 0 -0 -0 -0 -0 0 0 0 0 0 0 0 0 0 0 0 0 0 0 0 0 0 0 0 0 0
0 0 0 0 0 0 0 0 0 -0 -0 -0 -0 -0 -0 -0 -0 -0 -0 0 -0 0 0 -0 0 0 0 0 0 0 0 0 0 0 0 0 0 0 0 -0 0 0 0 0
0 0 0 0 0 0 0 0 -0 -0 -0 0 0 0 0 -0 -0 -0 -0 -0 -0 -0 -0 0 0 0 0 0 0 0 0 0 0 0 0 0 0 0 0 0 0 0 0 -0
0 0 0 0 0 0 0 -0 0 0 0 -0 -0 -0 -0 -0 -0 -0 -0 -0 -0 -0 -0 -0 -0 0 -0 0 0 0 0 0 0 0 0 0 -0 -0 0 0 0 0 0 0
0 0 0 0 0 0 0 0 -0 0 0 0 -0 -0 -0 -0 -0 -0 -0 -0 -0 -0 -0 -0 -0 -0 -0 -0 0 0 0 0 0 0 0 0 -0 -0 0 0 0 -0 -0 0
0 0 0 0 0 0 0 0 -0 -0 0 0 -0 -0 -0 -0 -0 0 -0 -0 -0 -0 -0 -0 -0 -0 0 -0 -0 -0 0 0 0 0 0 0 0 0 0 0 0 -0 -0 -0
-0 0 0 0 0 0 0 0 0 -0 0 0 0 -0 -0 -0 -0 0 0 -0 -0 -0 -0 -0 0 -0 -0 -0 0 0 0 0 0 0 0 0 0 0 0 0 0 0 -0 -0
-0 -0 -0 0 0 0 0 0 0 -0 -0 0 0 -0 -0 -0 0 0 0 0 -0 -0 -0 -0 -0 -0 -0 -0 -0 0 0 0 0 0 0 0 0 0 0 0 0 0 -0 -0
-0 -0 0 0 0 0 0 0 0 -0 -0 0 0 -0 -0 -0 0 0 0 -0 -0 -0 -0 -0 -0 -0 -0 -0 -0 -0 0 0 0 0 0 0 0 -0 -0 -0 0 0 -0 -0
Wind_Speed_500mb
16 20 20 20 26 34 29 23 14 13 14 16 14 16 29 37 42 49 51 52 53 60 68 77 83 84 85 88 85 81 79 89 85 95 92 74 56 55 75 78 82 83 73 80
14 22 25 29 29 31 33 33 20 6 14 11 26 38 42 44 51 49 51 63 72 78 82 86 86 81 83 87 83 85 85 89 91 101 91 80 74 50 67 67 76 68 48 68
8 15 19 13 25 24 5 30 11 12 8 28 32 33 42 53 48 50 68 77 84 87 89 83 87 92 89 88 93 87 83 88 90 94 101 94 85 57 62 58 64 51 45 53
6 10 6 3 19 14 37 31 24 18 24 24 25 36 41 34 51 62 72 79 85 86 87 92 92 90 85 86 83 84 84 80 73 72 81 88 85 69 61 60 61 55 46 44
3 5 17 23 10 12 9 12 16 13 16 25 38 37 13 46 57 63 66 87 84 85 86 84 81 78 77 75 74 76 75 75 75 69 67 60 61 70 65 59 57 62 49 65
5 6 6 9 11 19 8 6 13 17 12 15 34 21 22 70 68 83 86 82 84 82 80 80 79 73 74 76 76 77 68 69 72 70 59 55 54 60 59 51 54 56 54 34
10 6 6 5 12 20 1 6 20 24 28 27 9 17 57 67 84 81 79 83 79 79 77 80 80 76 74 73 77 70 66 64 61 63 67 45 50 55 61 54 51 49 42 48
7 4 9 17 13 8 2 12 19 27 28 31 34 46 53 70 78 79 82 84 80 79 81 78 71 66 70 72 69 64 60 61 54 55 52 47 34 47 49 47 50 43 43 46
3 2 18 31 28 15 4 11 18 26 37 32 43 52 65 75 77 78 78 79 78 77 77 70 63 60 65 71 69 68 67 63 57 47 45 44 44 39 32 33 38 36 42 49
12 8 21 28 22 11 12 18 23 32 28 38 48 61 71 72 75 79 78 78 78 78 74 65 61 61 61 67 73 71 70 60 52 48 38 34 46 27 35 27 23 33 33 36
13 8 17 27 19 18 21 23 31 24 29 37 50 64 70 70 75 74 74 77 75 71 64 61 59 62 64 65 64 68 68 45 35 29 32 27 33 34 42 30 14 28 25 55
5 11 4 7 14 21 23 28 22 26 33 40 51 60 73 70 68 71 76 78 75 64 59 55 53 59 64 65 59 58 53 39 24 13 14 17 30 29 48 37 27 24 27 27
10 5 3 11 19 18 24 19 24 23 32 38 48 50 70 69 68 71 73 76 71 67 62 54 50 55 62 54 55 52 46 34 23 15 7 11 12 24 37 45 33 17 32 27
11 6 12 22 14 21 21 21 21 26 25 35 47 43 67 72 77 76 79 81 75 71 65 55 47 49 57 58 43 44 45 36 30 22 13 13 6 11 24 27 28 19 16 33
7 12 21 15 18 22 20 24 29 31 34 39 47 44 65 70 78 82 82 83 79 78 72 63 54 46 46 49 47 38 43 41 30 22 20 12 7 3 19 32 20 8 12 20
15 23 20 18 22 23 25 27 29 32 34 43 46 45 58 60 72 79 86 88 95 94 85 75 64 53 47 45 39 34 35 35 30 24 15 14 1 15 7 23 42 25 15 25
23 22 16 20 22 25 27 26 31 32 40 41 42 41 59 60 65 70 81 88 94 93 89 82 74 58 49 40 32 36 30 33 30 28 21 16 10 4 18 13 18 38 38 18
19 17 18 22 23 25 26 28 34 36 37 38 40 43 52 64 60 77 72 75 90 97 99 93 83 68 55 45 33 27 27 32 26 21 20 18 15 12 6 9 17 30 46 57
22 21 24 25 24 25 25 27 31 33 35 36 40 44 42 58 54 66 74 77 84 100 94 92 92 85 70 54 40 26 23 25 23 21 21 21 14 9 10 14 19 31 35 30
24 22 25 26 26 25 25 24 28 31 38 41 45 47 48 51 55 61 80 73 73 72 88 79 87 91 83 70 58 46 37 27 24 19 20 17 22 30 21 15 14 17 35 42
22 22 23 25 25 25 25 25 27 31 31 46 45 52 48 49 50 57 69 86 71 67 84 73 78 84 83 82 74 65 55 44 34 26 22 25 20 15 12 25 24 18 17 34
22 23 23 22 22 21 23 24 29 31 32 38 43 48 53 54 53 49 54 69 70 62 74 76 66 73 75 72 78 76 70 61 52 43 36 28 24 22 14 13 22 23 33 26
23 22 22 21 21 21 23 22 30 31 30 38 42 44 53 58 47 51 55 66 76 71 71 74 61 65 69 73 72 73 76 71 64 57 50 41 34 28 23 14 7 6 1 7
22 21 20 20 20 23 26 28 22 32 33 35 34 41 51 62 43 49 39 59 70 78 75 69 74 65 66 69 71 70 73 71 66 63 56 49 43 36 31 23 14 7 8 3
22 21 20 18 21 23 24 25 21 31 38 29 36 38 43 55 38 49 49 45 60 75 79 65 75 71 68 68 70 70 70 73 71 66 60 60 55 49 40 34 23 14 6 11
23 21 25 24 21 23 24 25 26 31 39 35 34 39 46 53 36 52 49 43 56 71 71 63 69 77 72 70 70 71 72 72 73 71 68 63 59 56 52 45 37 27 17 10
21 22 16 18 25 20 22 24 28 32 36 35 31 40 44 50 41 54 45 47 60 68 61 61 65 73 73 72 73 74 73 73 73 72 70 69 65 56 54 52 46 40 30 22
Wind_Direction_500mb
274 284 277 260 237 267 269 255 220 238 239 54 41 24 28 12 360 348 339 335 330 323 315 309 306 304 301 299 296 292 293 284 279 275 274 278 287 293 290 303 300 298 267 253
284 289 277 272 267 264 267 266 257 318 95 41 25 15 12 1 347 341 335 326 321 319 317 312 307 301 300 294 292 291 288 285 282 281 279 271 280 297 300 301 296 303 271 243
264 282 315 278 251 276 222 50 49 55 344 7 6 8 357 337 339 332 325 324 321 317 311 309 307 304 300 294 295 291 286 285 284 280 273 273 275 291 298 298 301 294 231 222
246 305 249 130 24 43 81 57 43 32 17 9 351 335 325 339 333 326 325 320 316 312 311 311 309 308 305 301 295 292 288 285 279 280 279 273 271 274 289 295 298 295 247 247
192 233 286 312 61 348 45 56 38 23 3 344 342 327 326 339 329 324 320 317 316 315 314 316 315 315 311 307 301 295 287 284 284 282 280 276 271 266 285 289 289 292 280 243
224 213 262 70 7 330 315 141 10 17 344 348 345 339 322 330 326 325 324 323 319 323 324 321 325 324 316 312 311 305 298 286 279 277 278 272 280 263 268 281 293 293 279 259
221 238 245 312 357 312 218 265 340 16 350 334 320 302 315 323 323 328 326 326 329 329 324 326 328 326 319 315 311 314 310 300 284 272 270 272 260 254 251 274 290 291 275 231
226 225 250 333 36 81 220 332 360 343 345 335 340 338 331 328 329 332 331 335 337 332 331 333 333 330 324 319 324 320 313 304 294 280 269 259 271 263 247 266 281 289 262 247
145 234 101 90 110 100 42 358 352 6 352 357 353 346 339 336 338 335 337 338 339 337 335 341 345 343 334 334 331 321 313 304 298 294 279 260 248 244 241 237 269 281 242 232
150 233 150 93 73 56 22 21 19 2 10 1 356 351 345 340 339 342 343 341 343 343 342 346 349 343 340 340 337 329 318 306 296 288 286 275 234 235 232 223 262 271 246 242
99 59 137 66 42 11 25 24 9 17 14 8 356 357 350 344 348 348 345 348 347 345 346 349 350 351 349 346 345 341 339 317 297 285 279 282 219 227 229 205 252 264 257 223
132 115 119 41 14 20 30 19 32 23 11 3 360 359 358 355 357 355 352 352 351 354 354 351 353 352 355 352 353 353 359 2 349 323 295 277 225 216 219 210 219 239 250 241
124 149 148 74 43 27 31 37 34 29 16 2 6 358 6 4 8 4 360 358 2 359 358 355 358 359 358 351 357 356 4 5 7 345 317 299 256 216 218 218 239 246 231 227
103 57 63 52 37 46 39 45 24 11 32 5 11 1 7 18 19 12 9 3 6 6 6 5 2 1 4 4 357 5 3 9 7 5 22 353 158 184 193 211 243 265 270 223
93 92 78 59 46 41 40 16 17 21 22 13 13 6 5 19 19 21 16 9 12 11 13 10 7 359 358 2 5 352 1 10 5 9 14 18 245 38 164 192 187 134 196 199
97 72 63 55 56 51 40 33 33 24 27 20 16 11 8 16 18 19 22 15 18 16 16 12 10 3 359 2 4 3 358 6 15 15 358 6 94 231 191 183 205 207 138 156
84 65 57 63 62 58 59 47 35 38 28 27 21 15 15 20 19 12 19 19 22 23 24 21 15 10 5 359 358 12 3 350 353 354 357 352 317 247 219 211 205 230 231 206
96 87 75 75 72 72 62 49 41 39 33 25 19 19 12 17 12 15 17 13 16 21 25 27 23 21 17 11 3 2 2 2 357 0 2 357 359 343 327 262 247 242 245 235
98 91 86 79 78 77 71 56 45 39 31 25 20 22 13 15 15 12 20 17 14 15 16 25 28 28 25 25 24 23 13 2 0 8 343 351 349 327 318 288 265 249 245 240
103 96 89 85 79 76 67 58 50 37 26 28 26 27 24 14 15 10 17 21 14 11 13 21 29 30 29 30 32 31 25 16 20 7 340 350 334 322 322 315 291 276 241 232
103 99 93 89 81 71 60 48 51 39 25 26 26 25 24 19 20 13 12 17 11 7 10 19 29 28 29 31 34 36 34 32 26 16 10 13 9 25 349 301 281 280 260 242
105 100 94 87 77 71 59 48 41 41 37 25 25 21 20 19 21 19 13 13 11 4 9 17 22 28 28 31 31 34 35 36 34 30 24 17 7 358 337 341 27 241 265 262
108 103 93 84 72 61 64 48 34 35 33 31 21 16 14 15 22 16 10 8 6 10 11 22 21 26 21 30 32 32 31 31 32 32 31 22 15 8 2 2 351 349 181 32
109 100 93 82 66 57 49 44 34 21 31 36 25 15 11 9 17 26 4 0 3 4 8 15 22 24 23 23 27 30 31 30 29 28 29 29 26 20 12 0 352 309 282 33
114 107 93 82 64 53 43 46 35 26 20 40 30 24 14 7 22 24 17 356 359 2 6 11 15 22 24 23 22 25 27 27 27 27 24 25 25 25 25 18 6 358 303 248
125 112 101 76 65 51 47 44 41 28 22 32 30 18 2 4 36 29 20 357 1 3 7 18 9 16 22 22 23 21 20 21 22 23 24 23 20 20 21 22 16 14 2 323
101 109 82 83 59 48 42 42 36 32 25 27 28 19 3 12 35 27 20 2 0 6 11 17 12 11 18 21 22 21 19 16 16 18 18 18 17 17 15 15 14 11 7 358
Wind_Speed_850mb
16 20 20 20 26 34 29 23 14 13 14 16 14 16 29 37 42 49 51 52 53 60 68 77 83 84 85 88 85 81 79 89 85 95 92 74 56 55 75 78 82 83 73 80
14 22 25 29 29 31 33 33 20 6 14 11 26 38 42 44 51 49 51 63 72 78 82 86 86 81 83 87 83 85 85 89 91 101 91 80 74 50 67 67 76 68 48 68
8 15 19 13 25 24 5 30 11 12 8 28 32 33 42 53 48 50 68 77 84 87 89 83 87 92 89 88 93 87 83 88 90 94 101 94 85 57 62 58 64 51 45 53
6 10 6 3 19 14 37 31 24 18 24 24 25 36 41 34 51 62 72 79 85 86 87 92 92 90 85 86 83 84 84 80 73 72 81 88 85 69 61 60 61 55 46 44
3 5 17 23 10 12 9 12 16 13 16 25 38 37 13 46 57 63 66 87 84 85 86 84 81 78 77 75 74 76 75 75 75 69 67 60 61 70 65 59 57 62 49 65
5 6 6 9 11 19 8 6 13 17 12 15 34 21 22 70 68 83 86 82 84 82 80 80 79 73 74 76 76 77 68 69 72 70 59 55 54 60 59 51 54 56 54 34
10 6 6 5 12 20 1 6 20 24 28 27 9 17 57 67 84 81 79 83 79 79 77 80 80 76 74 73 77 70 66 64 61 63 67 45 50 55 61 54 51 49 42 48
7 4 9 17 13 8 2 12 19 27 28 31 34 46 53 70 78 79 82 84 80 79 81 78 71 66 70 72 69 64 60 61 54 55 52 47 34 47 49 47 50 43 43 46
3 2 18 31 28 15 4 11 18 26 37 32 43 52 65 75 77 78 78 79 78 77 77 70 63 60 65 71 69 68 67 63 57 47 45 44 44 39 32 33 38 36 42 49
12 8 21 28 22 11 12 18 23 32 28 38 48 61 71 72 75 79 78 78 78 78 74 65 61 61 61 67 73 71 70 60 52 48 38 34 46 27 35 27 23 33 33 36
13 8 17 27 19 18 21 23 31 24 29 37 50 64 70 70 75 74 74 77 75 71 64 61 59 62 64 65 64 68 68 45 35 29 32 27 33 34 42 30 14 28 25 55
5 11 4 7 14 21 23 28 22 26 33 40 51 60 73 70 68 71 76 78 75 64 59 55 53 59 64 65 59 58 53 39 24 13 14 17 30 29 48 37 27 24 27 27
10 5 3 11 19 18 24 19 24 23 32 38 48 50 70 69 68 71 73 76 71 67 62 54 50 55 62 54 55 52 46 34 23 15 7 11 12 24 37 45 33 17 32 27
11 6 12 22 14 21 21 21 21 26 25 35 47 43 67 72 77 76 79 81 75 71 65 55 47 49 57 58 43 44 45 36 30 22 13 13 6 11 24 27 28 19 16 33
7 12 21 15 18 22 20 24 29 31 34 39 47 44 65 70 78 82 82 83 79 78 72 63 54 46 46 49 47 38 43 41 30 22 20 12 7 3 19 32 20 8 12 20
15 23 20 18 22 23 25 27 29 32 34 43 46 45 58 60 72 79 86 88 95 94 85 75 64 53 47 45 39 34 35 35 30 24 15 14 1 15 7 23 42 25 15 25
23 22 16 20 22 25 27 26 31 32 40 41 42 41 59 60 65 70 81 88 94 93 89 82 74 58 49 40 32 36 30 33 30 28 21 16 10 4 18 13 18 38 38 18
19 17 18 22 23 25 26 28 34 36 37 38 40 43 52 64 60 77 72 75 90 97 99 93 83 68 55 45 33 27 27 32 26 21 20 18 15 12 6 9 17 30 46 57
22 21 24 25 24 25 25 27 31 33 35 36 40 44 42 58 54 66 74 77 84 100 94 92 92 85 70 54 40 26 23 25 23 21 21 21 14 9 10 14 19 31 35 30
24 22 25 26 26 25 25 24 28 31 38 41 45 47 48 51 55 61 80 73 73 72 88 79 87 91 83 70 58 46 37 27 24 19 20 17 22 30 21 15 14 17 35 42
22 22 23 25 25 25 25 25 27 31 31 46 45 52 48 49 50 57 69 86 71 67 84 73 78 84 83 82 74 65 55 44 34 26 22 25 20 15 12 25 24 18 17 34
22 23 23 22 22 21 23 24 29 31 32 38 43 48 53 54 53 49 54 69 70 62 74 76 66 73 75 72 78 76 70 61 52 43 36 28 24 22 14 13 22 23 33 26
23 22 22 21 21 21 23 22 30 31 30 38 42 44 53 58 47 51 55 66 76 71 71 74 61 65 69 73 72 73 76 71 64 57 50 41 34 28 23 14 7 6 1 7
22 21 20 20 20 23 26 28 22 32 33 35 34 41 51 62 43 49 39 59 70 78 75 69 74 65 66 69 71 70 73 71 66 63 56 49 43 36 31 23 14 7 8 3
22 21 20 18 21 23 24 25 21 31 38 29 36 38 43 55 38 49 49 45 60 75 79 65 75 71 68 68 70 70 70 73 71 66 60 60 55 49 40 34 23 14 6 11
23 21 25 24 21 23 24 25 26 31 39 35 34 39 46 53 36 52 49 43 56 71 71 63 69 77 72 70 70 71 72 72 73 71 68 63 59 56 52 45 37 27 17 10
21 22 16 18 25 20 22 24 28 32 36 35 31 40 44 50 41 54 45 47 60 68 61 61 65 73 73 72 73 74 73 73 73 72 70 69 65 56 54 52 46 40 30 22
Wind_Direction_850mb
274 284 277 260 237 267 269 255 220 238 239 54 41 24 28 12 360 348 339 335 330 323 315 309 306 304 301 299 296 292 293 284 279 275 274 278 287 293 290 303 300 298 267 253
284 289 277 272 267 264 267 266 257 318 95 41 25 15 12 1 347 341 335 326 321 319 317 312 307 301 300 294 292 291 288 285 282 281 279 271 280 297 300 301 296 303 271 243
264 282 315 278 251 276 222 50 49 55 344 7 6 8 357 337 339 332 325 324 321 317 311 309 307 304 300 294 295 291 286 285 284 280 273 273 275 291 298 298 301 294 231 222
246 305 249 130 24 43 81 57 43 32 17 9 351 335 325 339 333 326 325 320 316 312 311 311 309 308 305 301 295 292 288 285 279 280 279 273 271 274 289 295 298 295 247 247
192 233 286 312 61 348 45 56 38 23 3 344 342 327 326 339 329 324 320 317 316 315 314 316 315 315 311 307 301 295 287 284 284 282 280 276 271 266 285 289 289 292 280 243
224 213 262 70 7 330 315 141 10 17 344 348 345 339 322 330 326 325 324 323 319 323 324 321 325 324 316 312 311 305 298 286 279 277 278 272 280 263 268 281 293 293 279 259
221 238 245 312 357 312 218 265 340 16 350 334 320 302 315 323 323 328 326 326 329 329 324 326 328 326 319 315 311 314 310 300 284 272 270 272 260 254 251 274 290 291 275 231
226 225 250 333 36 81 220 332 360 343 345 335 340 338 331 328 329 332 331 335 337 332 331 333 333 330 324 319 324 320 313 304 294 280 269 259 271 263 247 266 281 289 262 247
145 234 101 90 110 100 42 358 352 6 352 357 353 346 339 336 338 335 337 338 339 337 335 341 345 343 334 334 331 321 313 304 298 294 279 260 248 244 241 237 269 281 242 232
150 233 150 93 73 56 22 21 19 2 10 1 356 351 345 340 339 342 343 341 343 343 342 346 349 343 340 340 337 329 318 306 296 288 286 275 234 235 232 223 262 271 246 242
99 59 137 66 42 11 25 24 9 17 14 8 356 357 350 344 348 348 345 348 347 345 346 349 350 351 349 346 345 341 339 317 297 285 279 282 219 227 229 205 252 264 257 223
132 115 119 41 14 20 30 19 32 23 11 3 360 359 358 355 357 355 352 352 351 354 354 351 353 352 355 352 353 353 359 2 349 323 295 277 225 216 219 210 219 239 250 241
124 149 148 74 43 27 31 37 34 29 16 2 6 358 6 4 8 4 360 358 2 359 358 355 358 359 358 351 357 356 4 5 7 345 317 299 256 216 218 218 239 246 231 227
103 57 63 52 37 46 39 45 24 11 32 5 11 1 7 18 19 12 9 3 6 6 6 5 2 1 4 4 357 5 3 9 7 5 22 353 158 184 193 211 243 265 270 223
93 92 78 59 46 41 40 16 17 21 22 13 13 6 5 19 19 21 16 9 12 11 13 10 7 359 358 2 5 352 1 10 5 9 14 18 245 38 164 192 187 134 196 199
97 72 63 55 56 51 40 33 33 24 27 20 16 11 8 16 18 19 22 15 18 16 16 12 10 3 359 2 4 3 358 6 15 15 358 6 94 231 191 183 205 207 138 156
84 65 57 63 62 58 59 47 35 38 28 27 21 15 15 20 19 12 19 19 22 23 24 21 15 10 5 359 358 12 3 350 353 354 357 352 317 247 219 211 205 230 231 206
96 87 75 75 72 72 62 49 41 39 33 25 19 19 12 17 12 15 17 13 16 21 25 27 23 21 17 11 3 2 2 2 357 0 2 357 359 343 327 262 247 242 245 235
98 91 86 79 78 77 71 56 45 39 31 25 20 22 13 15 15 12 20 17 14 15 16 25 28 28 25 25 24 23 13 2 0 8 343 351 349 327 318 288 265 249 245 240
103 96 89 85 79 76 67 58 50 37 26 28 26 27 24 14 15 10 17 21 14 11 13 21 29 30 29 30 32 31 25 16 20 7 340 350 334 322 322 315 291 276 241 232
103 99 93 89 81 71 60 48 51 39 25 26 26 25 24 19 20 13 12 17 11 7 10 19 29 28 29 31 34 36 34 32 26 16 10 13 9 25 349 301 281 280 260 242
105 100 94 87 77 71 59 48 41 41 37 25 25 21 20 19 21 19 13 13 11 4 9 17 22 28 28 31 31 34 35 36 34 30 24 17 7 358 337 341 27 241 265 262
108 103 93 84 72 61 64 48 34 35 33 31 21 16 14 15 22 16 10 8 6 10 11 22 21 26 21 30 32 32 31 31 32 32 31 22 15 8 2 2 351 349 181 32
109 100 93 82 66 57 49 44 34 21 31 36 25 15 11 9 17 26 4 0 3 4 8 15 22 24 23 23 27 30 31 30 29 28 29 29 26 20 12 0 352 309 282 33
114 107 93 82 64 53 43 46 35 26 20 40 30 24 14 7 22 24 17 356 359 2 6 11 15 22 24 23 22 25 27 27 27 27 24 25 25 25 25 18 6 358 303 248
125 112 101 76 65 51 47 44 41 28 22 32 30 18 2 4 36 29 20 357 1 3 7 18 9 16 22 22 23 21 20 21 22 23 24 23 20 20 21 22 16 14 2 323
101 109 82 83 59 48 42 42 36 32 25 27 28 19 3 12 35 27 20 2 0 6 11 17 12 11 18 21 22 21 19 16 16 18 18 18 17 17 15 15 14 11 7 358